Regional Weather Roundup
Issued by NWS Sioux Falls, SD

Home | Current Version | Previous Version | Text Only | Print | Product List | Glossary On
Versions: 1 2 3 4 5 6 7 8 9 10 11 12 13 14 15 16 17 18 19 20 21 22 23 24 25 26 27 28 29 30 31 32 33 34 35 36 37 38 39 40 41 42 43 44 45 46 47 48 49 50
000
ASUS43 KFSD 072102
RWRFSD

WEATHER ROUNDUP FOR SE SOUTH DAKOTA/SW MINNESOTA/NW IOWA
NATIONAL WEATHER SERVICE SIOUX FALLS SD
400 PM CDT TUE JUL 07 2015

NOTE: "FAIR" INDICATES FEW OR NO CLOUDS BELOW 12,000 FEET WITH NO
SIGNIFICANT WEATHER AND OR OBSTRUCTIONS TO VISIBILITY.


SDZ038>040-050-052>070-072200-
SOUTHEAST SOUTH DAKOTA

CITY           SKY/WX    TMP DP  RH WIND       PRES   REMARKS
BROOKINGS      SUNNY     66  46  48 S7        30.18S
CHAMBERLAIN    NOT AVBL
HURON          MOSUNNY   68  44  42 S7        30.13F
MADISON        FAIR      66  48  52 SE6       30.17S
MITCHELL       MOSUNNY   71  48  43 E7        30.15F
SIOUX FALLS    PTSUNNY   69  48  47 E6        30.15F
WINNER         FAIR      76  54  46 E10       30.12F
YANKTON        SUNNY     70  48  46 NE8       30.13F
$$

MNZ071-072-080-081-089-090-097-098-072200-
SOUTHWEST MINNESOTA

CITY           SKY/WX    TMP DP  RH WIND       PRES   REMARKS
FAIRMONT       SUNNY     66  46  48 NE5       30.14S
JACKSON        SUNNY     68  50  52 NE12      30.15F
MARSHALL       SUNNY     66  46  48 N3        30.15
MONTEVIDEO     MOSUNNY   72  48  43 CALM      30.17F
PIPESTONE      SUNNY     66  46  48 NE8       30.16F
REDWOOD FALLS  PTSUNNY   68  48  48 VRB3      30.16F
TRACY          SUNNY     68  48  49 CALM      30.16F
WINDOM         SUNNY     66  48  52 NE8       30.15F
WORTHINGTON    SUNNY     66  48  52 NE13      30.15F
$$

IAZ001>003-012>014-020>022-031-032-NEZ013-014-SDZ071-072200-
NORTHWEST IOWA

CITY           SKY/WX    TMP DP  RH WIND       PRES   REMARKS
DENISON        MOSUNNY   68  50  52 VRB6G18   30.11S
ESTHERVILLE    MOSUNNY   66  51  58 N7G16     30.14F
SIOUX CITY     SUNNY     71  49  45 VRB6G17   30.13F
SPENCER        SUNNY     69  49  48 NE14      30.14F
$$

ABBREVIATIONS USED IN REMARKS
   TC - TEMPERATURE IN CELSIUS
  WCI - WIND CHILL INDEX
   HX - HEAT INDEX
  VSB - VISIBILITY




USA.gov is the U.S. government's official web portal to all federal, state and local government web resources and services.